Location: Clyde
(45.1830°S, 169.3170°E)
Time: 06:32:20
(UTC+12:00)

Cosmos 1655 Rocket - Pass Details

Date: 14 May 2021
Orbit: 970 x 1006 km, 82.9° (Epoch: 19 June)

Event Time Altitude Azimuth Distance (km) Brightness Sun altitude
Rises 19:13:07 0° 11° (NNE) 3,680 7.0 -19.0°
Reaches altitude 10° 19:15:41 10° 16° (NNE) 2,745 6.3 -19.5°
Maximum altitude 19:21:44 50° 89° (E) 1,256 4.1 -20.5°
Drops below altitude 10° 19:27:53 10° 162° (SSE) 2,802 6.2 -21.6°
Sets 19:30:31 0° 167° (SSE) 3,763 6.9 -22.1°
